Wind_Speed
20 21 21 19 18 17 16 15 16 18 17 17 16 12 11 13 15 15 18 21 23 22 20 21 22 22 22 21 22 22 24 24 23 22 26 27 16 12 15 15 13 15 14
17 20 21 21 20 20 18 17 17 17 18 19 19 16 13 13 16 16 16 20 22 22 22 22 23 23 23 23 23 23 25 26 28 27 24 22 16 8 8 12 12 14 12
18 18 19 21 21 19 18 19 19 19 18 20 21 20 17 13 16 16 15 19 21 24 24 22 23 24 23 24 23 25 27 29 31 27 24 19 16 9 6 11 12 13 10
15 16 16 17 17 18 20 21 21 21 20 20 21 22 21 17 15 15 17 18 20 22 24 24 23 23 24 25 23 24 28 31 33 28 21 17 17 14 9 7 8 10 4
20 19 14 12 14 14 17 21 23 23 22 22 22 22 21 20 18 15 18 18 19 21 23 25 23 23 24 25 25 25 28 31 30 24 21 18 17 15 9 8 8 8 6
27 23 23 20 19 19 18 17 19 24 25 24 23 22 22 19 21 16 18 19 18 19 21 24 24 23 23 25 24 25 28 31 29 24 23 21 17 15 10 8 8 7 3
31 31 29 28 27 27 24 22 21 21 24 27 25 24 22 21 20 18 19 18 18 18 19 21 24 22 22 24 24 24 27 30 27 24 26 22 18 14 9 8 4 6 1
35 35 33 33 32 32 31 28 26 25 22 27 27 26 23 22 21 18 20 20 18 18 18 20 23 22 22 23 24 24 26 30 26 25 24 23 22 17 10 8 6 6 5
33 33 32 31 29 26 28 27 28 26 26 25 28 28 26 24 22 19 23 22 18 18 17 19 21 20 20 22 22 22 23 26 24 23 25 24 22 19 12 10 11 9 4
32 33 31 30 27 24 24 23 25 28 26 24 28 30 28 25 22 21 24 24 19 18 17 19 19 19 19 19 21 19 21 25 22 19 22 25 26 19 9 9 10 10 9
25 28 29 27 27 26 25 23 24 25 22 22 27 28 28 27 24 23 25 27 21 19 18 17 18 17 16 16 18 17 18 21 19 19 24 29 28 22 13 10 9 12 12
25 25 26 28 29 32 30 24 21 20 20 23 25 26 26 27 24 24 25 28 23 20 19 18 17 17 15 14 15 15 15 18 19 18 22 24 25 22 16 14 11 13 14
21 24 28 33 34 35 28 27 21 18 17 18 21 21 21 22 21 23 25 28 25 21 19 19 17 17 14 14 13 12 13 15 18 16 16 19 23 19 18 16 16 14 14
17 19 22 25 30 37 33 29 22 22 20 20 21 20 20 18 17 17 23 24 26 22 18 18 17 17 13 11 13 11 10 12 14 10 11 14 16 20 19 13 17 17 16
16 16 17 17 22 34 40 35 31 26 29 33 26 28 26 23 19 17 16 17 20 20 20 18 17 17 12 12 9 10 7 8 10 8 7 11 14 19 17 12 15 17 15
9 13 15 18 18 20 32 38 38 42 32 35 34 35 32 28 22 26 22 21 22 25 23 17 16 17 14 11 10 8 7 5 7 7 5 6 10 13 15 16 13 14 14
6 5 7 9 11 13 19 26 33 46 52 51 52 46 36 37 31 28 28 25 25 26 25 21 16 15 13 12 13 8 7 4 5 5 3 4 6 9 11 13 14 15 17
3 8 10 9 10 11 15 22 25 27 34 47 48 50 42 34 35 31 32 15 20 27 25 20 13 10 16 15 12 11 8 6 4 6 1 6 4 7 8 10 10 9 11
4 3 5 11 14 14 15 18 17 11 11 12 19 31 43 38 34 37 31 20 21 34 33 31 34 32 30 21 16 13 10 9 7 7 6 5 7 5 6 7 8 7 8
10 10 10 12 12 13 14 14 9 7 9 7 10 12 31 37 21 20 26 19 27 29 28 29 26 21 21 21 21 15 12 12 9 9 10 6 8 9 7 7 8 7 7
19 23 18 20 21 16 14 13 13 7 2 1 11 23 19 18 21 18 16 15 18 23 28 25 19 26 27 25 18 23 17 15 12 13 12 12 7 10 10 9 8 8 8
14 20 28 27 26 21 16 15 16 17 17 18 16 17 18 17 15 13 14 15 16 22 25 26 23 30 29 26 31 25 19 18 13 16 15 15 11 9 11 12 11 9 9
11 14 16 19 22 19 18 17 16 14 15 17 12 12 12 13 16 13 14 15 17 17 21 22 21 28 32 30 31 32 26 17 17 18 17 17 16 13 10 11 13 12 11
10 12 12 13 14 14 15 16 16 14 12 12 14 13 13 15 15 15 14 17 17 17 19 21 26 28 28 31 33 37 38 21 21 21 18 18 18 17 14 12 12 14 14
14 13 13 13 10 9 7 9 12 14 14 12 13 13 12 11 13 12 10 11 12 13 17 20 22 26 32 33 26 32 36 23 17 17 18 19 18 19 18 17 15 13 13
14 14 13 11 8 5 4 4 5 7 9 8 6 3 3 4 5 4 5 3 3 5 7 8 12 15 18 14 20 34 25 21 17 19 17 18 19 19 19 19 17 16 16
Wind_Direction
234 234 236 237 239 241 243 243 242 243 248 257 273 284 306 327 338 341 349 352 353 348 352 354 351 353 352 355 359 356 350 350 347 333 325 332 334 336 332 322 328 338 332
237 239 237 236 238 241 243 247 248 247 248 255 267 279 290 309 323 339 340 348 351 346 348 349 349 353 352 354 358 357 352 352 350 346 342 337 347 351 319 306 314 322 321
234 236 239 242 244 249 248 249 250 251 252 254 261 272 282 295 309 325 333 346 345 347 345 344 347 351 350 352 357 357 352 354 357 353 342 342 350 5 335 301 314 314 316
228 228 238 244 247 250 254 254 255 255 255 256 260 266 273 284 295 311 329 340 343 342 342 342 343 348 350 350 357 0 354 358 357 356 354 353 359 3 6 331 336 351 318
232 232 230 240 243 244 252 253 254 258 259 258 260 264 271 277 286 303 316 330 337 339 339 339 339 346 350 347 355 1 355 2 1 2 359 5 4 1 1 357 354 349 5
238 244 240 238 247 252 255 255 260 258 258 259 259 263 269 275 279 295 307 319 329 336 335 336 338 343 350 347 353 2 358 4 5 8 8 10 4 8 7 346 0 348 355
241 244 248 250 255 255 253 257 263 268 260 257 259 260 266 270 274 286 295 306 318 330 332 330 338 341 348 347 352 3 0 7 8 11 16 19 14 3 359 14 17 15 26
240 241 244 248 253 254 253 255 263 269 276 259 256 259 261 266 271 278 286 296 310 320 327 321 330 342 346 346 350 3 2 8 13 15 25 28 30 25 38 45 38 15 359
237 240 245 244 250 252 252 255 258 265 273 262 254 255 258 262 270 275 281 289 300 310 318 316 322 337 342 344 347 3 3 11 14 18 24 26 29 33 39 49 47 21 40
242 243 244 240 242 246 253 250 251 259 263 259 252 254 257 261 266 272 277 282 291 298 306 311 317 331 338 343 343 360 1 9 18 22 26 27 26 27 30 39 65 44 76
242 246 240 238 245 249 258 260 259 258 254 251 253 255 260 264 265 267 272 277 282 288 294 306 312 324 330 340 341 353 3 8 14 25 29 27 27 35 51 64 64 71 92
241 240 244 249 248 251 257 253 254 259 253 251 251 255 258 264 266 266 268 272 277 280 287 298 302 314 321 332 338 349 0 2 18 32 34 31 29 42 53 59 68 88 93
246 246 251 251 245 242 240 259 247 249 252 257 258 260 266 267 272 267 266 269 273 276 282 288 296 305 317 325 330 346 354 357 22 30 33 33 31 43 55 65 78 77 105
251 257 254 250 244 232 230 239 242 249 251 256 260 264 260 262 271 283 272 269 270 275 276 276 284 293 313 319 320 335 349 355 16 43 37 40 38 47 57 57 85 81 98
259 259 250 257 254 239 237 239 240 260 268 276 264 261 266 264 265 268 280 274 268 269 265 267 274 285 293 300 309 315 334 344 359 42 52 47 48 53 53 50 81 87 95
247 247 248 247 253 251 243 247 246 250 250 263 266 261 263 265 263 265 264 263 260 259 264 269 267 278 282 287 287 291 303 328 338 18 80 56 65 64 60 59 68 90 98
202 204 206 222 240 242 239 249 256 247 254 257 260 257 254 262 255 258 266 257 254 256 261 263 257 272 273 279 279 269 274 281 306 331 97 108 84 80 81 76 76 79 88
178 228 231 228 226 242 253 255 298 279 267 259 254 251 254 254 254 254 265 261 257 257 250 257 254 274 293 284 277 271 260 255 258 284 312 150 143 113 106 100 95 94 85
236 297 267 247 245 251 269 290 327 335 313 273 253 243 247 251 251 268 255 261 266 249 241 246 256 258 249 269 274 266 257 242 238 253 265 174 170 164 138 132 120 115 105
249 267 278 300 270 258 260 267 295 2 9 354 191 273 249 242 238 255 269 265 259 257 253 250 263 250 212 238 261 257 258 240 231 238 248 233 186 184 173 165 152 147 130
266 265 272 288 286 264 241 240 245 243 283 201 172 199 229 249 256 252 261 265 254 251 243 239 257 221 220 226 262 264 264 243 223 233 233 241 209 199 191 188 180 174 165
261 264 263 268 265 271 257 248 232 237 247 252 238 239 244 245 247 258 253 254 263 248 247 256 256 228 227 227 225 240 248 237 222 229 225 231 228 209 209 198 199 204 184
254 264 259 250 257 269 270 261 257 260 270 280 270 258 259 261 261 255 253 259 267 261 249 234 249 232 231 235 236 232 245 231 226 223 224 225 226 220 212 219 214 210 215
281 288 288 281 274 271 266 264 261 262 265 268 272 275 279 279 271 261 256 255 256 247 251 251 245 234 231 238 253 225 226 228 226 218 218 222 226 225 217 215 223 230 230
275 285 290 283 284 277 277 256 249 256 261 276 282 288 286 274 264 256 250 242 239 239 242 240 240 238 246 245 239 216 218 216 218 222 216 215 223 227 224 223 219 224 234
261 272 285 283 256 254 281 282 273 251 256 260 276 267 266 253 245 239 194 193 200 220 227 247 252 249 237 237 217 201 205 206 216 213 205 211 212 221 226 231 229 229 233
Height
3195 3197 3199 3201 3203 3204 3206 3207 3208 3209 3210 3210 3209 3209 3209 3208 3206 3204 3202 3199 3195 3190 3186 3182 3178 3173 3169 3163 3159 3154 3148 3142 3137 3131 3122 3115 3112 3109 3105 3102 3100 3098 3095
3192 3194 3196 3198 3199 3201 3203 3204 3205 3206 3207 3207 3207 3207 3207 3207 3205 3204 3202 3199 3195 3190 3186 3182 3178 3174 3169 3163 3158 3153 3147 3141 3135 3127 3119 3113 3109 3108 3106 3102 3099 3098 3096
3188 3191 3193 3195 3197 3199 3201 3201 3202 3203 3204 3204 3205 3205 3205 3205 3203 3202 3201 3198 3195 3190 3186 3182 3179 3174 3169 3163 3158 3153 3146 3140 3133 3125 3118 3113 3108 3107 3105 3102 3099 3097 3096
3186 3187 3189 3191 3193 3195 3196 3198 3198 3200 3201 3202 3201 3202 3203 3202 3201 3201 3199 3197 3194 3190 3187 3182 3179 3175 3169 3164 3158 3153 3146 3139 3132 3124 3118 3112 3108 3105 3103 3100 3099 3096 3096
3183 3184 3186 3188 3189 3190 3192 3193 3194 3196 3197 3198 3198 3199 3200 3200 3199 3199 3198 3196 3193 3190 3186 3182 3179 3175 3170 3163 3158 3153 3147 3140 3133 3126 3119 3113 3108 3104 3102 3100 3099 3097 3096
3179 3181 3183 3184 3186 3187 3188 3189 3190 3191 3193 3194 3195 3196 3197 3198 3196 3196 3196 3194 3192 3190 3186 3182 3179 3174 3170 3164 3158 3153 3147 3141 3133 3126 3120 3114 3109 3106 3104 3102 3100 3098 3098
3174 3176 3178 3180 3181 3182 3185 3186 3186 3187 3188 3190 3192 3192 3193 3195 3194 3194 3193 3192 3191 3189 3185 3181 3179 3175 3171 3165 3159 3154 3148 3142 3135 3129 3121 3115 3110 3106 3104 3101 3100 3099 3098
3169 3172 3174 3175 3176 3179 3180 3182 3183 3183 3185 3185 3187 3188 3189 3190 3191 3192 3190 3189 3189 3188 3185 3181 3178 3175 3171 3166 3160 3154 3148 3142 3136 3131 3124 3118 3112 3107 3104 3102 3102 3101 3099
3165 3167 3169 3171 3172 3174 3175 3176 3178 3179 3180 3179 3181 3183 3185 3186 3187 3188 3187 3186 3187 3185 3184 3180 3178 3175 3171 3167 3161 3156 3151 3145 3139 3134 3127 3122 3115 3110 3108 3105 3103 3102 3100
3159 3161 3163 3165 3167 3169 3170 3171 3172 3172 3173 3174 3175 3177 3179 3182 3184 3184 3183 3182 3184 3183 3181 3179 3177 3175 3171 3167 3163 3159 3153 3147 3143 3139 3132 3126 3118 3113 3110 3108 3104 3103 3102
3153 3156 3158 3161 3163 3165 3166 3167 3166 3166 3168 3170 3170 3173 3175 3176 3180 3180 3179 3177 3181 3180 3179 3177 3175 3174 3171 3167 3163 3161 3155 3150 3145 3141 3134 3128 3121 3117 3113 3111 3108 3106 3106
3150 3153 3155 3157 3159 3160 3161 3162 3162 3163 3163 3165 3166 3167 3169 3170 3174 3175 3175 3174 3176 3176 3176 3175 3174 3172 3170 3167 3163 3161 3157 3153 3148 3144 3138 3133 3129 3122 3119 3116 3113 3111 3109
3146 3148 3149 3150 3152 3153 3157 3158 3158 3159 3160 3162 3164 3164 3165 3166 3169 3170 3170 3171 3171 3172 3173 3172 3171 3170 3170 3168 3164 3161 3159 3155 3149 3146 3143 3139 3134 3129 3124 3122 3118 3116 3114
3140 3140 3141 3142 3144 3148 3150 3153 3156 3158 3156 3160 3161 3161 3161 3160 3162 3165 3165 3167 3167 3168 3169 3168 3168 3168 3169 3167 3165 3162 3159 3156 3154 3150 3148 3144 3140 3135 3131 3130 3125 3122 3121
3134 3135 3135 3137 3139 3142 3146 3147 3150 3153 3155 3153 3154 3157 3157 3156 3156 3163 3162 3163 3164 3164 3164 3164 3164 3165 3165 3165 3163 3163 3159 3158 3156 3153 3151 3148 3145 3140 3138 3136 3133 3129 3128
3129 3129 3130 3132 3135 3137 3139 3143 3145 3145 3146 3147 3147 3149 3150 3152 3151 3156 3156 3157 3158 3158 3160 3160 3160 3161 3162 3163 3162 3161 3159 3158 3157 3156 3152 3152 3149 3146 3144 3142 3140 3137 3135
3125 3126 3127 3128 3131 3133 3134 3135 3136 3135 3134 3136 3136 3140 3143 3145 3147 3148 3150 3150 3152 3154 3156 3156 3156 3157 3158 3160 3160 3159 3158 3158 3158 3157 3154 3154 3153 3150 3149 3148 3146 3144 3141
3123 3124 3125 3126 3127 3130 3130 3130 3128 3122 3119 3119 3123 3127 3132 3136 3137 3139 3137 3125 3141 3147 3150 3152 3153 3153 3155 3158 3157 3157 3156 3157 3157 3157 3156 3154 3155 3153 3152 3152 3151 3150 3148
3119 3121 3122 3123 3124 3125 3124 3123 3121 3116 3112 3109 3110 3116 3123 3129 3131 3133 3142 3135 3136 3137 3140 3143 3144 3145 3153 3155 3156 3154 3154 3154 3155 3156 3157 3154 3155 3156 3155 3154 3153 3152 3152
3115 3117 3118 3119 3119 3119 3119 3120 3120 3116 3112 3110 3108 3114 3117 3123 3129 3132 3131 3129 3132 3134 3137 3138 3139 3140 3142 3149 3151 3151 3150 3152 3153 3154 3157 3156 3154 3156 3156 3156 3155 3155 3155
3111 3113 3112 3112 3114 3115 3115 3116 3117 3117 3116 3115 3112 3113 3119 3118 3123 3124 3123 3124 3126 3127 3129 3131 3133 3135 3138 3141 3144 3147 3147 3150 3150 3152 3155 3156 3154 3155 3155 3156 3157 3157 3157
3107 3108 3109 3109 3110 3110 3109 3112 3113 3114 3115 3115 3114 3116 3115 3115 3116 3118 3120 3121 3120 3121 3122 3126 3128 3129 3132 3135 3140 3142 3144 3145 3145 3148 3151 3153 3154 3153 3154 3156 3157 3159 3158
3104 3104 3105 3105 3104 3104 3104 3105 3106 3106 3106 3107 3108 3110 3111 3113 3114 3115 3116 3115 3115 3114 3116 3118 3121 3122 3125 3129 3132 3135 3138 3139 3141 3143 3146 3148 3151 3152 3153 3154 3156 3157 3159
3101 3101 3100 3100 3101 3101 3101 3102 3104 3104 3104 3106 3107 3107 3108 3109 3108 3108 3109 3109 3109 3109 3109 3111 3113 3115 3118 3121 3122 3123 3131 3135 3137 3139 3141 3144 3147 3149 3150 3152 3154 3156 3157
3099 3100 3099 3099 3099 3099 3099 3099 3100 3102 3103 3103 3105 3104 3104 3104 3104 3102 3102 3103 3104 3105 3106 3107 3108 3110 3111 3113 3118 3121 3128 3131 3134 3134 3136 3139 3142 3145 3146 3148 3149 3152 3154
3096 3096 3096 3097 3098 3096 3096 3098 3097 3097 3099 3100 3100 3101 3102 3101 3100 3100 3100 3100 3101 3102 3103 3104 3104 3106 3107 3109 3111 3118 3124 3127 3131 3131 3132 3134 3136 3139 3141 3144 3145 3147 3149